* Astronomy

Members Login
Username 
 
Password 
    Remember Me  
Post Info TOPIC: Asteroid 2011 EK


L

Posts: 131433
Date:
Asteroid 2011 EK
Permalink  
 


Orbital elements:
2011 EK Earth MOID = 0.0528 AU
Epoch 2011 Feb. 8.0 TT = JDT 2455600.5 MPC
M 171.12064 (2000.0) P Q
n 1.15844583 Peri. 178.32068 +0.89662075 +0.43847140
a 0.8978812 Node 155.37925 -0.40796892 +0.87223946
e 0.1618345 Incl. 8.52493 -0.17214121 +0.21665910
P 0.85 H 22.2 G 0.15 U 9

MPEC 2011 - E09


__________________
Page 1 of 1  sorted by
 
Quick Reply

Please log in to post quick replies.



Create your own FREE Forum
Report Abuse
Powered by ActiveBoard